Regional Weather Roundup
Issued by NWS

Home | Current Version | Previous Version | Text Only | Print | Product List | Glossary Off
Versions: 1 2 3 4 5 6 7 8 9 10 11 12 13 14 15 16 17 18 19 20 21 22 23 24 25 26 27 28 29 30 31 32 33 34 35 36 37 38 39 40 41 42 43 44 45 46 47 48 49 50

000
ASUS43 KLOT 250308
RWRIL

ILLINOIS REGIONAL WEATHER ROUNDUP
NATIONAL WEATHER SERVICE CHICAGO/ROMEOVILLE IL
1000 PM CDT SUN MAY 24 2015

NOTE: "FAIR" INDICATES FEW OR NO CLOUDS BELOW 12,000 FEET WITH NO
SIGNIFICANT WEATHER AND/OR OBSTRUCTIONS TO VISIBILITY.

* THESE STATIONS ARE NOT UNDER NWS QUALITY CONTROL. THEY ALSO MAY NOT
  REPORT WEATHER SUCH AS PRECIPITATION OR FOG.

ILZ001-002-007-009-015-016-024-250400-
NORTHWEST ILLINOIS

CITY           SKY/WX    TMP DP  RH WIND       PRES   REMARKS
MOLINE         MOCLDY    70  66  87 S9        29.85R
STERLING*      CLOUDY    68  64  88 SW6       29.88F
SAVANNA*       CLOUDY    68  66  93 SE7       29.86S
$$

ILZ003-004-008-010-011-017-018-250400-
NORTH CENTRAL ILLINOIS

CITY           SKY/WX    TMP DP  RH WIND       PRES   REMARKS
ROCKFORD       CLOUDY    68  65  90 SE8       29.90F
FREEPORT*      LGT RAIN  64  63  98 E3        29.91R
ROCHELLE*      MOCLDY    68  65  91 SE12      29.89F
DE KALB*       CLOUDY    65  64  96 S6        29.92F
PERU*          CLOUDY    70  66  89 S10       29.90R
$$

ILZ005-006-012>014-019>023-250400-
NORTHEAST ILLINOIS

CITY           SKY/WX    TMP DP  RH WIND       PRES   REMARKS
CHICAGO-OHARE  MOCLDY    64  61  90 SE7       29.92S
CHICAGO-MIDWAY MOCLDY    71  64  78 S7        29.93S
AURORA         CLOUDY    70  64  81 W6        29.92R
LANSING*       MOCLDY    76  57  52 S14G23    29.94S
JOLIET*        MOCLDY    76  64  66 S7        29.93R
WAUKEGAN       CLOUDY    59  56  89 SE6       29.92S
DUPAGE AIRPORT CLOUDY    69  64  84 SE9       29.90F
KANKAKEE*      MOCLDY    76  62  62 SE14G21   29.96R
WHEELING       MOCLDY    63  60  90 SE5       29.93S
MORRIS*        MOCLDY    74  62  66 S12       29.91S
ROMEOVILLE*    MOCLDY    72  61  68 S15       29.92S
NORTHERLY ISL    N/A     59  56  89 CALM        N/A
$$

LMZ740>746-250400-
SOUTHERN LAKE MICHIGAN

STATION/POSITION SKY/WX   TEMP    WIND        PRES    VSBY  WAVE
                          AIR SEA DIR/SP/G                  HT/PER
                          (F)     (DEG/KT/KT) (MB)    (MI)  (FT/S)
SOUTHERN BUOY              48 38   90/ 12/ 12 1014.2F         1
HARRISON CRIB              57     110/  7/ 10   N/A
BURNHAM HARBOR             60     150/  3       N/A
CALUMET HARBOR             59        CALM       N/A
BURNS HARBOR               77     180/ 14/ 20 1014.6S
MICHIGAN CITY              78     160/ 14/ 17   N/A
MICHIGAN CITY 6N           70 55  180/ 12/ 16   N/A           1
ST. JOSEPH                 68 56  200/ 12/ 14   N/A           1
$$

ILZ025>027-034>036-040-047-049-050-058-095>099-250400-
WEST-CENTRAL ILLINOIS

CITY           SKY/WX    TMP DP  RH WIND       PRES   REMARKS
QUINCY         CLOUDY    68  66  93 S10       29.87R
GALESBURG*     HVY RAIN  67  65  93 SE6       29.89S
MACOMB*        LGT RAIN  67  66  97 SE9       29.91R
JACKSONVILLE*  CLOUDY    73  67  81 SW3       29.90S
PITTSFIELD*    HVY RAIN  69  65  88 SW5       29.90F
$$

ILZ028>032-037-038-041>044-048-051>054-059>061-250400-
CENTRAL ILLINOIS

CITY           SKY/WX    TMP DP  RH WIND       PRES   REMARKS
PONTIAC        PTCLDY    78  64  60 S17G26    29.93S HX  80
BLOOMINGTON    MOCLDY    77  64  63 S18       29.94R
DECATUR        MOCLDY    77  63  61 S15       29.94S
PEORIA         CLOUDY    79  62  56 S12       29.88S HX  80
LACON*         CLOUDY    76  62  61 S10       29.88S
LINCOLN*       MOCLDY    79  63  58 S14G23    29.88F HX  80
SPRINGFIELD    CLOUDY    78  64  61 S16       29.90S HX  80
TAYLORVILLE    MOCLDY    75  64  69 SE14G22   29.92S
$$

ILZ033-039-045-046-055>057-062-063-250400-
EAST-CENTRAL ILLINOIS

CITY           SKY/WX    TMP DP  RH WIND       PRES   REMARKS
CHAMPAIGN      MOCLDY    76  62  62 SE16      29.97R
DANVILLE*      PTCLDY    75  62  62 S14       29.97S
RANTOUL*       PTCLDY    78  63  59 S16       29.96S HX  80
MATTOON        PTCLDY    75  63  66 S13G23    29.97R
PARIS*         MOCLDY    76  63  63 S16       30.01S
$$

ILZ079-100>102-250400-
SOUTHWEST ILLINOIS

CITY           SKY/WX    TMP DP  RH WIND       PRES   REMARKS
ALTON          CLOUDY    70  70 100 S12       29.93R
BELLEVILLE     HVY RAIN  70  70 100 S31G45    29.96R FOG
CAHOKIA*       RAIN      71  67  87 S6        29.92S
SPARTA*        HVY RAIN  76  67  75 S13G21    29.95R
$$

ILZ064>066-069>071-074>076-080>082-084>086-088>090-092>094-250400-
SOUTH-CENTRAL ILLINOIS

CITY           SKY/WX    TMP DP  RH WIND       PRES   REMARKS
CARBONDALE     RAIN      68  64  87 S22G33    30.00F FOG
CAIRO*         CLOUDY    68  66  94 SE6       30.00F
EFFINGHAM*     MOCLDY    77  61  58 SE10G16   29.99R
MARION         LGT RAIN  70  66  88 SW7       30.02R
MT. VERNON     MOCLDY    77  64  65 S17       30.00R
CENTRALIA*     CLOUDY    76  64  65 SE18G24   29.96R
SALEM*         MOCLDY    79  65  60 S13G21    29.97R HX  81
METROPOLIS*    CLOUDY    76  70  80 S13G20    30.02R
$$

ILZ067-068-072-073-078-083-087-091-250400-
SOUTHEAST ILLINOIS

CITY           SKY/WX    TMP DP  RH WIND       PRES   REMARKS
LAWRENCEVILLE  PTCLDY    76  63  64 S15       30.03
FLORA*         PTCLDY    75  65  70 S15       30.00R
FAIRFIELD*     PTCLDY    76  66  72 SE10      29.99R
HARRISBURG*    MOCLDY    76  67  76 S12G17    30.03R
ROBINSON*      PTCLDY    75  62  63 S8        30.03R
CARMI*         CLEAR     73  63  68 SE10      30.01R
$$

ABBREVIATIONS USED IN REMARKS
   TC - TEMPERATURE IN CELSIUS
  WCI - WIND CHILL INDEX
   HX - HEAT INDEX
  VSB - VISIBILITY
$$




USA.gov is the U.S. government's official web portal to all federal, state and local government web resources and services.